User: anonymous   Login
Location: Cluny
(50.9333°N, 112.8167°W)
Time: 08:00:25
(UTC-06:00)
Language:

Cosmos 1743 Rocket - Orbit

View from above orbital plane
View from above orbital plane
View from above satellite
View from above satellite

Ground track
Ground track

The orbit data is extracted from the following two-line orbital elements,

1 16720U 86034B   16269.14147557  .00000101  00000-0  94614-5 0  9996
2 16720  82.5530 128.6084 0018743 254.9652 223.6377 14.83249255639973
Epoch (UTC): 25 September 2016 03:23:43
Eccentricity: 0.0018743
inclination: 82.5530°
perigee height: 606 km
apogee height: 632 km
right ascension of ascending node: 128.6084°
argument of perigee: 254.9652°
revolutions per day: 14.83249255
mean anomaly at epoch: 223.6377°
orbit number at epoch: 63997

The dashed part of the orbit path shows where the satellite is in the earth's shadow,  

DLR